Location: Newark
(45.6439°N, 0.5436°E)
Time: 06:04:14
(UTC+00:00)

N. Korean satellite - Pass Details

Date: 24 November 2019
Orbit: 456 x 506 km, 97.2° (Epoch: 09 December)

Event Time Altitude Azimuth Distance (km) Brightness Sun altitude
Rises 17:44:30 0° 196° (SSW) 2,574 10.7 -14.6°
Reaches altitude 10° 17:46:52 10° 211° (SSW) 1,703 10.0 -15.0°
Maximum altitude 17:49:52 24° 266° (W) 1,092 9.3 -15.5°
Drops below altitude 10° 17:52:55 10° 321° (NW) 1,728 9.7 -16.0°
Sets 17:55:20 0° 336° (NNW) 2,621 10.4 -16.4°
